Time,TemperatureF,DewpointF,PressureIn,WindDirection,WindDirectionDegrees,WindSpeedMPH,WindSpeedGustMPH,Humidity,HourlyPrecipIn,Conditions,Clouds,dailyrainin,SoftwareType,DateUTC
2013-02-24 00:00:00,27.1,19.5,29.99,NW,315,8.2,8.2,73,0.00,,,0.00,WUHU216HW,2013-02-24 05:00:00,
2013-02-24 00:05:00,27.1,19.5,29.99,NNW,338,5.1,8.2,73,0.00,,,0.00,WUHU216HW,2013-02-24 05:05:00,
2013-02-24 00:10:00,27.3,19.7,29.99,WSW,248,1.5,7.3,73,0.00,,,0.00,WUHU216HW,2013-02-24 05:10:00,
2013-02-24 00:15:00,27.3,19.7,29.99,West,270,8.2,9.6,73,0.00,,,0.00,WUHU216HW,2013-02-24 05:15:00,
2013-02-24 00:20:00,27.3,19.7,29.99,West,270,1.3,9.6,73,0.00,,,0.00,WUHU216HW,2013-02-24 05:20:00,
2013-02-24 00:25:00,27.3,19.7,29.99,WSW,248,6.0,8.2,73,0.00,,,0.00,WUHU216HW,2013-02-24 05:25:00,
2013-02-24 00:30:00,27.3,19.7,29.98,West,270,2.0,7.3,73,0.00,,,0.00,WUHU216HW,2013-02-24 05:30:00,
2013-02-24 00:35:00,27.5,19.9,29.98,WSW,248,2.2,7.3,73,0.00,,,0.00,WUHU216HW,2013-02-24 05:35:00,
2013-02-24 00:40:00,27.5,19.9,29.99,WNW,293,8.7,8.7,73,0.00,,,0.00,WUHU216HW,2013-02-24 05:40:00,
2013-02-24 00:45:00,27.5,19.9,29.99,SW,225,0.0,8.7,73,0.00,,,0.00,WUHU216HW,2013-02-24 05:45:00,
2013-02-24 00:50:00,27.5,19.9,29.98,WNW,293,6.9,8.7,73,0.00,,,0.00,WUHU216HW,2013-02-24 05:50:00,
2013-02-24 00:55:00,27.5,19.9,29.99,SSW,203,6.7,7.3,73,0.00,,,0.00,WUHU216HW,2013-02-24 05:55:00,
2013-02-24 01:00:00,27.6,20.1,29.99,West,270,2.4,7.3,73,0.00,,,0.00,WUHU216HW,2013-02-24 06:00:00,
2013-02-24 01:05:00,27.6,20.1,29.99,WSW,248,5.3,5.3,73,0.00,,,0.00,WUHU216HW,2013-02-24 06:05:00,
2013-02-24 01:10:00,27.6,20.1,29.98,NW,315,8.7,8.7,73,0.00,,,0.00,WUHU216HW,2013-02-24 06:10:00,
2013-02-24 01:15:00,27.6,20.1,29.98,WNW,293,6.2,8.7,73,0.00,,,0.00,WUHU216HW,2013-02-24 06:15:00,
2013-02-24 01:20:00,27.6,20.1,29.99,West,270,0.8,8.7,73,0.00,,,0.00,WUHU216HW,2013-02-24 06:20:00,
2013-02-24 01:25:00,27.6,20.1,29.99,West,270,7.6,7.6,73,0.00,,,0.00,WUHU216HW,2013-02-24 06:25:00,
2013-02-24 01:30:00,27.6,20.1,29.99,WNW,293,7.3,7.6,73,0.00,,,0.00,WUHU216HW,2013-02-24 06:30:00,
2013-02-24 01:35:00,27.5,19.9,30.00,WNW,293,3.1,7.3,73,0.00,,,0.00,WUHU216HW,2013-02-24 06:35:00,
2013-02-24 01:40:00,27.6,20.4,29.99,SW,225,12.0,12.0,74,0.00,,,0.00,WUHU216HW,2013-02-24 06:40:00,
2013-02-24 01:45:00,27.5,20.2,29.99,West,270,8.9,12.0,74,0.00,,,0.00,WUHU216HW,2013-02-24 06:45:00,
2013-02-24 01:50:00,27.5,20.2,29.99,NW,315,3.1,12.0,74,0.00,,,0.00,WUHU216HW,2013-02-24 06:50:00,
2013-02-24 01:55:00,27.5,20.2,29.99,WNW,293,5.8,8.9,74,0.00,,,0.00,WUHU216HW,2013-02-24 06:55:00,
2013-02-24 02:00:00,27.3,19.7,29.99,West,270,3.3,5.8,73,0.00,,,0.00,WUHU216HW,2013-02-24 07:00:00,
2013-02-24 02:05:00,27.3,20.0,30.00,WNW,293,0.8,4.6,74,0.00,,,0.00,WUHU216HW,2013-02-24 07:05:00,
2013-02-24 02:10:00,27.5,20.2,30.00,WNW,293,6.2,9.1,74,0.00,,,0.00,WUHU216HW,2013-02-24 07:10:00,
2013-02-24 02:17:00,27.3,20.0,30.00,WNW,293,8.0,9.1,74,0.00,,,0.00,WUHU216HW,2013-02-24 07:17:00,
2013-02-24 02:22:00,27.5,20.2,30.00,WNW,293,6.2,8.0,74,0.00,,,0.00,WUHU216HW,2013-02-24 07:22:00,
2013-02-24 02:27:00,27.5,20.2,29.99,NW,315,5.3,8.0,74,0.00,,,0.00,WUHU216HW,2013-02-24 07:27:00,
2013-02-24 02:32:00,27.5,20.2,29.99,NNW,338,7.3,9.3,74,0.00,,,0.00,WUHU216HW,2013-02-24 07:32:00,
2013-02-24 02:37:00,27.5,20.2,29.99,WNW,293,9.6,9.6,74,0.00,,,0.00,WUHU216HW,2013-02-24 07:37:00,
2013-02-24 02:42:00,27.3,20.0,30.00,NW,315,5.1,9.6,74,0.00,,,0.00,WUHU216HW,2013-02-24 07:42:00,
2013-02-24 02:47:00,27.5,20.2,29.99,West,270,10.7,10.7,74,0.00,,,0.00,WUHU216HW,2013-02-24 07:47:00,
2013-02-24 02:52:00,27.5,20.2,29.99,WSW,248,8.9,10.7,74,0.00,,,0.00,WUHU216HW,2013-02-24 07:52:00,
2013-02-24 02:57:00,27.5,20.5,29.99,NW,315,8.9,10.7,75,0.00,,,0.00,WUHU216HW,2013-02-24 07:57:00,
2013-02-24 03:02:00,27.5,20.5,29.99,West,270,3.1,8.9,75,0.00,,,0.00,WUHU216HW,2013-02-24 08:02:00,
2013-02-24 03:07:00,27.5,20.5,29.99,SW,225,3.1,6.9,75,0.00,,,0.00,WUHU216HW,2013-02-24 08:07:00,
2013-02-24 03:12:00,27.5,20.5,29.99,NW,315,3.3,3.3,75,0.00,,,0.00,WUHU216HW,2013-02-24 08:12:00,
2013-02-24 03:17:00,27.5,20.5,29.99,WNW,293,2.2,3.3,75,0.00,,,0.00,WUHU216HW,2013-02-24 08:17:00,
2013-02-24 03:22:00,27.5,20.5,29.99,WNW,293,3.3,4.6,75,0.00,,,0.00,WUHU216HW,2013-02-24 08:22:00,
2013-02-24 03:27:00,27.5,20.5,29.99,NW,315,5.8,5.8,75,0.00,,,0.00,WUHU216HW,2013-02-24 08:27:00,
2013-02-24 03:32:00,27.5,20.5,29.99,NW,315,3.8,5.8,75,0.00,,,0.00,WUHU216HW,2013-02-24 08:32:00,
2013-02-24 03:37:00,27.5,20.5,29.99,NW,315,9.3,9.3,75,0.00,,,0.00,WUHU216HW,2013-02-24 08:37:00,
2013-02-24 03:42:00,27.5,20.5,29.99,WNW,293,4.9,9.3,75,0.00,,,0.00,WUHU216HW,2013-02-24 08:42:00,
2013-02-24 03:47:00,27.5,20.8,29.99,West,270,6.4,9.3,76,0.00,,,0.00,WUHU216HW,2013-02-24 08:47:00,
2013-02-24 03:52:00,27.5,20.8,29.99,WNW,293,6.4,15.8,76,0.00,,,0.00,WUHU216HW,2013-02-24 08:52:00,
2013-02-24 03:57:00,27.5,20.8,29.99,West,270,2.0,15.8,76,0.00,,,0.00,WUHU216HW,2013-02-24 08:57:00,
2013-02-24 04:02:00,27.6,20.7,29.99,NW,315,2.9,7.6,75,0.00,,,0.00,WUHU216HW,2013-02-24 09:02:00,
2013-02-24 04:07:00,27.6,20.7,29.99,NW,315,4.4,7.6,75,0.00,,,0.00,WUHU216HW,2013-02-24 09:07:00,
2013-02-24 04:12:00,27.6,21.0,29.99,NW,315,3.5,4.4,76,0.00,,,0.00,WUHU216HW,2013-02-24 09:12:00,
2013-02-24 04:17:00,27.6,21.0,29.99,WNW,293,0.0,4.4,76,0.00,,,0.00,WUHU216HW,2013-02-24 09:17:00,
2013-02-24 04:22:00,27.6,21.0,30.00,WNW,293,4.0,4.0,76,0.00,,,0.00,WUHU216HW,2013-02-24 09:22:00,
2013-02-24 04:27:00,27.6,21.0,29.99,WNW,293,3.1,4.0,76,0.00,,,0.00,WUHU216HW,2013-02-24 09:27:00,
2013-02-24 04:32:00,27.8,21.5,30.00,WNW,293,4.0,4.0,77,0.00,,,0.00,WUHU216HW,2013-02-24 09:32:00,
2013-02-24 04:37:00,28.0,21.7,30.00,NW,315,3.5,4.0,77,0.00,,,0.00,WUHU216HW,2013-02-24 09:37:00,
2013-02-24 04:42:00,28.0,21.7,30.00,WNW,293,6.7,6.7,77,0.00,,,0.00,WUHU216HW,2013-02-24 09:42:00,
2013-02-24 04:47:00,28.0,21.7,30.00,NNE,23,6.7,7.3,77,0.00,,,0.00,WUHU216HW,2013-02-24 09:47:00,
2013-02-24 04:52:00,28.0,21.7,30.00,West,270,2.6,7.3,77,0.00,,,0.00,WUHU216HW,2013-02-24 09:52:00,
2013-02-24 04:57:00,28.0,21.7,30.00,West,270,0.0,9.8,77,0.00,,,0.00,WUHU216HW,2013-02-24 09:57:00,
2013-02-24 05:02:00,28.0,21.7,29.99,NW,315,3.1,9.8,77,0.00,,,0.00,WUHU216HW,2013-02-24 10:02:00,
2013-02-24 05:07:00,28.0,21.7,30.00,NW,315,7.8,7.8,77,0.00,,,0.00,WUHU216HW,2013-02-24 10:07:00,
2013-02-24 05:12:00,28.0,21.7,30.00,WNW,293,2.2,7.8,77,0.00,,,0.00,WUHU216HW,2013-02-24 10:12:00,
2013-02-24 05:17:00,28.2,21.9,30.00,WNW,293,6.9,7.8,77,0.00,,,0.00,WUHU216HW,2013-02-24 10:17:00,
2013-02-24 05:22:00,28.2,21.9,30.00,NW,315,8.2,8.2,77,0.00,,,0.00,WUHU216HW,2013-02-24 10:22:00,
2013-02-24 05:27:00,28.2,21.9,30.01,NW,315,5.5,8.2,77,0.00,,,0.00,WUHU216HW,2013-02-24 10:27:00,
2013-02-24 05:32:00,28.2,22.2,30.01,WNW,293,0.0,8.2,78,0.00,,,0.00,WUHU216HW,2013-02-24 10:32:00,
2013-02-24 05:37:00,28.2,21.9,30.01,NW,315,8.2,8.2,78,0.00,,,0.00,WUHU216HW,2013-02-24 10:37:00,
2013-02-24 05:42:00,28.2,22.2,30.01,WNW,293,2.0,8.2,78,0.00,,,0.00,WUHU216HW,2013-02-24 10:42:00,
2013-02-24 05:47:00,28.2,22.2,30.02,WNW,293,6.2,8.2,78,0.00,,,0.00,WUHU216HW,2013-02-24 10:47:00,
2013-02-24 05:52:00,28.2,22.2,30.02,NW,315,2.6,8.9,78,0.00,,,0.00,WUHU216HW,2013-02-24 10:52:00,
2013-02-24 05:57:00,28.4,22.3,30.01,NW,315,6.7,8.9,78,0.00,,,0.00,WUHU216HW,2013-02-24 10:57:00,
2013-02-24 06:02:00,28.4,22.3,30.02,West,270,2.9,6.7,78,0.00,,,0.00,WUHU216HW,2013-02-24 11:02:00,
2013-02-24 06:07:00,28.5,22.5,30.02,NNW,338,2.2,6.7,78,0.00,,,0.00,WUHU216HW,2013-02-24 11:07:00,
2013-02-24 06:12:00,28.4,22.3,30.02,NNW,338,0.0,6.7,78,0.00,,,0.00,WUHU216HW,2013-02-24 11:12:00,
2013-02-24 06:17:00,28.4,22.3,30.02,WNW,293,2.9,2.9,78,0.00,,,0.00,WUHU216HW,2013-02-24 11:17:00,
2013-02-24 06:22:00,28.4,22.3,30.02,WNW,293,4.4,5.8,78,0.00,,,0.00,WUHU216HW,2013-02-24 11:22:00,
2013-02-24 06:27:00,28.5,22.5,30.02,NW,315,1.1,8.9,78,0.00,,,0.00,WUHU216HW,2013-02-24 11:27:00,
2013-02-24 06:32:00,28.5,22.5,30.02,WNW,293,3.5,8.9,78,0.00,,,0.00,WUHU216HW,2013-02-24 11:32:00,
2013-02-24 06:37:00,28.5,22.5,30.03,NNE,23,2.4,5.1,78,0.00,,,0.00,WUHU216HW,2013-02-24 11:37:00,
2013-02-24 06:42:00,28.5,22.5,30.02,NW,315,9.1,9.1,78,0.00,,,0.00,WUHU216HW,2013-02-24 11:42:00,
2013-02-24 06:47:00,28.5,22.5,30.03,WNW,293,2.9,9.1,78,0.00,,,0.00,WUHU216HW,2013-02-24 11:47:00,
2013-02-24 06:52:00,28.5,22.5,30.03,West,270,0.8,6.4,78,0.00,,,0.00,WUHU216HW,2013-02-24 11:52:00,
2013-02-24 06:57:00,28.5,22.5,30.03,NW,315,5.8,6.4,78,0.00,,,0.00,WUHU216HW,2013-02-24 11:57:00,
2013-02-24 07:02:00,28.2,22.2,30.03,NW,315,4.0,5.8,78,0.00,,,0.00,WUHU216HW,2013-02-24 12:02:00,
2013-02-24 07:07:00,28.2,22.2,30.03,West,270,1.7,5.8,78,0.00,,,0.00,WUHU216HW,2013-02-24 12:07:00,
2013-02-24 07:12:00,28.2,22.2,30.03,NW,315,1.5,4.0,78,0.00,,,0.00,WUHU216HW,2013-02-24 12:12:00,
2013-02-24 07:17:00,28.0,22.0,30.04,NW,315,2.2,2.2,78,0.00,,,0.00,WUHU216HW,2013-02-24 12:17:00,
2013-02-24 07:22:00,28.0,22.3,30.04,NNW,338,1.1,2.2,79,0.00,,,0.00,WUHU216HW,2013-02-24 12:22:00,
2013-02-24 07:27:00,28.0,22.3,30.05,NW,315,0.0,2.2,79,0.00,,,0.00,WUHU216HW,2013-02-24 12:27:00,
2013-02-24 07:32:00,28.0,22.3,30.05,NW,315,0.0,2.2,79,0.00,,,0.00,WUHU216HW,2013-02-24 12:32:00,
2013-02-24 07:37:00,28.0,22.3,30.06,WNW,293,1.3,2.2,79,0.00,,,0.00,WUHU216HW,2013-02-24 12:37:00,
2013-02-24 07:42:00,28.0,22.3,30.06,WNW,293,2.2,8.9,79,0.00,,,0.00,WUHU216HW,2013-02-24 12:42:00,
2013-02-24 07:47:00,28.2,22.5,30.07,NW,315,1.1,8.9,79,0.00,,,0.00,WUHU216HW,2013-02-24 12:47:00,
2013-02-24 07:52:00,28.2,22.5,30.07,West,270,0.0,4.4,79,0.00,,,0.00,WUHU216HW,2013-02-24 12:52:00,
2013-02-24 07:57:00,28.2,22.5,30.07,West,270,3.1,3.1,79,0.00,,,0.00,WUHU216HW,2013-02-24 12:57:00,
2013-02-24 08:02:00,28.2,22.5,30.08,West,270,3.1,3.1,79,0.00,,,0.00,WUHU216HW,2013-02-24 13:02:00,
2013-02-24 08:07:00,28.5,22.8,30.08,WNW,293,6.0,6.0,79,0.00,,,0.00,WUHU216HW,2013-02-24 13:07:00,
2013-02-24 08:12:00,28.7,23.0,30.08,West,270,1.7,6.0,79,0.00,,,0.00,WUHU216HW,2013-02-24 13:12:00,
2013-02-24 08:17:00,28.7,23.0,30.09,WNW,293,0.0,6.0,79,0.00,,,0.00,WUHU216HW,2013-02-24 13:17:00,
2013-02-24 08:22:00,28.9,23.2,30.10,NW,315,4.0,4.0,79,0.00,,,0.00,WUHU216HW,2013-02-24 13:22:00,
2013-02-24 08:27:00,29.1,23.3,30.10,NNW,338,2.9,4.0,79,0.00,,,0.00,WUHU216HW,2013-02-24 13:27:00,
2013-02-24 08:32:00,29.1,23.3,30.10,West,270,3.5,4.0,79,0.00,,,0.00,WUHU216HW,2013-02-24 13:32:00,
2013-02-24 08:37:00,29.3,23.2,30.11,West,270,2.0,3.5,78,0.00,,,0.00,WUHU216HW,2013-02-24 13:37:00,
2013-02-24 08:42:00,29.4,23.4,30.11,WNW,293,0.8,3.5,78,0.00,,,0.00,WUHU216HW,2013-02-24 13:42:00,
2013-02-24 08:47:00,29.6,23.6,30.11,West,270,3.1,8.0,78,0.00,,,0.00,WUHU216HW,2013-02-24 13:47:00,
2013-02-24 08:52:00,29.8,23.7,30.11,WNW,293,0.0,8.0,78,0.00,,,0.00,WUHU216HW,2013-02-24 13:52:00,
2013-02-24 08:57:00,30.0,23.6,30.12,WSW,248,4.6,4.6,77,0.00,,,0.00,WUHU216HW,2013-02-24 13:57:00,
2013-02-24 09:02:00,30.2,23.8,30.12,West,270,1.3,4.6,77,0.00,,,0.00,WUHU216HW,2013-02-24 14:02:00,
2013-02-24 09:07:00,30.3,24.0,30.13,WNW,293,1.1,2.2,77,0.00,,,0.00,WUHU216HW,2013-02-24 14:07:00,
2013-02-24 09:12:00,30.5,24.1,30.13,NW,315,3.3,3.3,77,0.00,,,0.00,WUHU216HW,2013-02-24 14:12:00,
2013-02-24 09:17:00,30.9,24.2,30.13,West,270,3.5,3.8,76,0.00,,,0.00,WUHU216HW,2013-02-24 14:17:00,
2013-02-24 09:22:00,30.9,24.2,30.14,West,270,1.1,3.8,76,0.00,,,0.00,WUHU216HW,2013-02-24 14:22:00,
2013-02-24 09:27:00,31.1,24.0,30.14,West,270,2.2,3.5,75,0.00,,,0.00,WUHU216HW,2013-02-24 14:27:00,
2013-02-24 09:32:00,31.2,24.2,30.14,WSW,248,6.9,7.3,75,0.00,,,0.00,WUHU216HW,2013-02-24 14:32:00,
2013-02-24 09:37:00,31.2,24.2,30.15,SSW,203,3.5,7.3,75,0.00,,,0.00,WUHU216HW,2013-02-24 14:37:00,
2013-02-24 09:42:00,31.4,24.4,30.15,WNW,293,3.8,6.9,75,0.00,,,0.00,WUHU216HW,2013-02-24 14:42:00,
2013-02-24 09:47:00,31.6,24.2,30.15,WSW,248,3.3,3.8,74,0.00,,,0.00,WUHU216HW,2013-02-24 14:47:00,
2013-02-24 09:52:00,31.2,24.2,30.16,WSW,248,3.3,3.3,75,0.00,,,0.00,WUHU216HW,2013-02-24 14:52:00,
2013-02-24 09:57:00,31.2,24.2,30.16,West,270,1.7,3.3,75,0.00,,,0.00,WUHU216HW,2013-02-24 14:57:00,
2013-02-24 10:02:00,31.1,24.0,30.16,SSW,203,5.1,5.5,75,0.00,,,0.00,WUHU216HW,2013-02-24 15:02:00,
2013-02-24 10:07:00,30.7,23.7,30.16,SSW,203,6.4,6.4,75,0.00,,,0.00,WUHU216HW,2013-02-24 15:07:00,
2013-02-24 10:12:00,30.7,23.7,30.16,SSW,203,4.0,6.4,75,0.00,,,0.00,WUHU216HW,2013-02-24 15:12:00,
2013-02-24 10:17:00,29.8,23.7,30.17,SSW,203,6.2,6.4,78,0.00,,,0.00,WUHU216HW,2013-02-24 15:17:00,
2013-02-24 10:22:00,29.8,23.7,30.17,SSW,203,6.2,6.2,78,0.00,,,0.00,WUHU216HW,2013-02-24 15:22:00,
2013-02-24 10:27:00,29.8,23.7,30.17,SSW,203,6.2,6.2,78,0.00,,,0.00,WUHU216HW,2013-02-24 15:27:00,
2013-02-24 10:47:00,30.0,24.2,30.17,SW,225,3.5,3.5,79,0.00,,,0.00,WUHU216HW,2013-02-24 15:47:00,
2013-02-24 10:52:00,30.2,24.4,30.17,NW,315,3.3,3.5,79,0.00,,,0.00,WUHU216HW,2013-02-24 15:52:00,
2013-02-24 10:57:00,30.5,24.5,30.17,NW,315,3.8,11.8,78,0.00,,,0.00,WUHU216HW,2013-02-24 15:57:00,
2013-02-24 11:02:00,30.7,24.6,30.17,West,270,6.2,11.8,78,0.00,,,0.00,WUHU216HW,2013-02-24 16:02:00,
2013-02-24 11:07:00,30.7,24.6,30.18,West,270,0.6,8.2,78,0.00,,,0.00,WUHU216HW,2013-02-24 16:07:00,
2013-02-24 11:12:00,31.1,25.0,30.18,West,270,2.0,8.2,78,0.00,,,0.00,WUHU216HW,2013-02-24 16:12:00,
2013-02-24 11:17:00,31.2,24.9,30.18,SW,225,8.9,8.9,77,0.00,,,0.00,WUHU216HW,2013-02-24 16:17:00,
2013-02-24 11:22:00,31.2,24.9,30.19,SW,225,5.8,8.9,77,0.00,,,0.00,WUHU216HW,2013-02-24 16:22:00,
2013-02-24 11:27:00,31.2,24.9,30.19,SSW,203,3.1,8.9,77,0.00,,,0.00,WUHU216HW,2013-02-24 16:27:00,
2013-02-24 11:32:00,31.6,25.2,30.19,SSW,203,7.1,8.7,77,0.00,,,0.00,WUHU216HW,2013-02-24 16:32:00,
2013-02-24 11:37:00,31.6,25.2,30.19,WSW,248,1.3,7.1,77,0.00,,,0.00,WUHU216HW,2013-02-24 16:37:00,
2013-02-24 11:42:00,31.8,25.4,30.20,SSW,203,5.1,7.1,77,0.00,,,0.00,WUHU216HW,2013-02-24 16:42:00,
2013-02-24 11:47:00,31.6,24.9,30.20,SW,225,7.1,7.1,76,0.00,,,0.00,WUHU216HW,2013-02-24 16:47:00,
2013-02-24 11:52:00,31.8,25.1,30.20,WSW,248,0.0,7.1,76,0.00,,,0.00,WUHU216HW,2013-02-24 16:52:00,
2013-02-24 11:57:00,31.8,25.1,30.21,SW,225,1.3,7.1,76,0.00,,,0.00,WUHU216HW,2013-02-24 16:57:00,
2013-02-24 12:02:00,31.6,24.9,30.20,WSW,248,4.4,9.6,76,0.00,,,0.00,WUHU216HW,2013-02-24 17:02:00,
2013-02-24 12:07:00,31.2,24.5,30.21,WSW,248,4.4,9.6,76,0.00,,,0.00,WUHU216HW,2013-02-24 17:07:00,
2013-02-24 12:12:00,31.2,24.9,30.21,SW,225,2.0,4.4,77,0.00,,,0.00,WUHU216HW,2013-02-24 17:12:00,
2013-02-24 12:17:00,31.6,25.2,30.21,WNW,293,0.0,4.4,77,0.00,,,0.00,WUHU216HW,2013-02-24 17:17:00,
2013-02-24 12:22:00,31.8,25.4,30.21,SW,225,0.8,4.2,77,0.00,,,0.00,WUHU216HW,2013-02-24 17:22:00,
2013-02-24 12:27:00,31.8,25.1,30.21,SSW,203,6.2,6.2,76,0.00,,,0.00,WUHU216HW,2013-02-24 17:27:00,
2013-02-24 12:32:00,31.8,25.1,30.21,WSW,248,2.0,6.2,76,0.00,,,0.00,WUHU216HW,2013-02-24 17:32:00,
2013-02-24 12:37:00,31.8,24.8,30.21,West,270,3.5,9.3,75,0.00,,,0.00,WUHU216HW,2013-02-24 17:37:00,
2013-02-24 12:42:00,32.1,25.4,30.21,West,270,2.9,9.3,76,0.00,,,0.00,WUHU216HW,2013-02-24 17:42:00,
2013-02-24 12:47:00,32.5,25.7,30.21,SSW,203,5.3,5.3,76,0.00,,,0.00,WUHU216HW,2013-02-24 17:47:00,
2013-02-24 12:52:00,32.7,25.6,30.21,WSW,248,7.1,9.6,75,0.00,,,0.00,WUHU216HW,2013-02-24 17:52:00,
2013-02-24 12:57:00,32.7,25.3,30.21,WSW,248,2.9,9.6,74,0.00,,,0.00,WUHU216HW,2013-02-24 17:57:00,
2013-02-24 13:02:00,32.7,25.3,30.21,West,270,2.6,8.7,74,0.00,,,0.00,WUHU216HW,2013-02-24 18:02:00,
2013-02-24 13:07:00,33.0,25.6,30.21,WNW,293,2.2,5.5,74,0.00,,,0.00,WUHU216HW,2013-02-24 18:07:00,
2013-02-24 13:12:00,33.2,25.7,30.21,WSW,248,8.7,8.7,74,0.00,,,0.00,WUHU216HW,2013-02-24 18:12:00,
2013-02-24 13:17:00,33.4,25.9,30.21,West,270,2.9,8.7,74,0.00,,,0.00,WUHU216HW,2013-02-24 18:17:00,
2013-02-24 13:22:00,33.8,26.2,30.21,West,270,2.2,8.7,74,0.00,,,0.00,WUHU216HW,2013-02-24 18:22:00,
2013-02-24 13:27:00,34.3,26.4,30.21,SW,225,6.9,6.9,73,0.00,,,0.00,WUHU216HW,2013-02-24 18:27:00,
2013-02-24 13:32:00,34.5,26.6,30.21,West,270,5.1,6.9,73,0.00,,,0.00,WUHU216HW,2013-02-24 18:32:00,
2013-02-24 13:37:00,34.1,25.9,30.21,SW,225,5.3,6.9,72,0.00,,,0.00,WUHU216HW,2013-02-24 18:37:00,
2013-02-24 13:42:00,34.1,26.1,30.21,WSW,248,1.7,5.3,72,0.00,,,0.00,WUHU216HW,2013-02-24 18:42:00,
2013-02-24 13:47:00,34.1,26.1,30.21,WSW,248,1.7,5.3,72,0.00,,,0.00,WUHU216HW,2013-02-24 18:47:00,
2013-02-24 14:36:00,38.8,28.7,30.21,West,270,0.0,0.0,67,0.00,,,0.00,WUHU216HW,2013-02-24 19:36:00,
2013-02-24 14:41:00,38.8,28.7,30.21,West,270,0.0,0.0,67,0.00,,,0.00,WUHU216HW,2013-02-24 19:41:00,
2013-02-24 14:46:00,38.8,28.7,30.21,West,270,0.0,0.0,67,0.00,,,0.00,WUHU216HW,2013-02-24 19:46:00,
2013-02-24 14:51:00,38.8,28.7,30.21,WNW,293,4.0,4.0,67,0.00,,,0.00,WUHU216HW,2013-02-24 19:51:00,
2013-02-24 14:56:00,39.5,27.9,30.21,NNW,338,0.8,6.9,63,0.00,,,0.00,WUHU216HW,2013-02-24 19:56:00,
2013-02-24 15:01:00,39.3,28.4,30.21,WNW,293,2.9,6.9,65,0.00,,,0.00,WUHU216HW,2013-02-24 20:01:00,
2013-02-24 15:06:00,39.7,28.4,30.21,WNW,293,0.0,10.2,64,0.00,,,0.00,WUHU216HW,2013-02-24 20:06:00,
2013-02-24 15:11:00,39.7,28.8,30.21,WNW,293,1.3,10.2,65,0.00,,,0.00,WUHU216HW,2013-02-24 20:11:00,
2013-02-24 15:16:00,40.4,29.1,30.21,WSW,248,2.4,4.4,64,0.00,,,0.00,WUHU216HW,2013-02-24 20:16:00,
2013-02-24 15:21:00,40.8,29.9,30.21,WNW,293,0.0,4.4,65,0.00,,,0.00,WUHU216HW,2013-02-24 20:21:00,
2013-02-24 15:26:00,41.9,30.4,30.21,SW,225,3.8,3.8,65,0.00,,,0.00,WUHU216HW,2013-02-24 20:26:00,
2013-02-24 15:31:00,42.0,29.9,30.22,WNW,293,2.4,3.8,62,0.00,,,0.00,WUHU216HW,2013-02-24 20:31:00,
2013-02-24 15:36:00,41.5,29.4,30.22,WSW,248,3.1,3.8,62,0.00,,,0.00,WUHU216HW,2013-02-24 20:36:00,
2013-02-24 15:41:00,41.1,28.7,30.21,WNW,293,1.1,3.1,61,0.00,,,0.00,WUHU216HW,2013-02-24 20:41:00,
2013-02-24 15:46:00,41.1,29.1,30.21,NNW,338,3.8,9.1,62,0.00,,,0.00,WUHU216HW,2013-02-24 20:46:00,
2013-02-24 15:51:00,41.9,29.8,30.21,SW,225,1.7,9.1,62,0.00,,,0.00,WUHU216HW,2013-02-24 20:51:00,
2013-02-24 15:56:00,42.0,29.9,30.21,NW,315,3.5,4.0,62,0.00,,,0.00,WUHU216HW,2013-02-24 20:56:00,
2013-02-24 16:01:00,42.0,29.5,30.21,NNW,338,1.1,5.5,61,0.00,,,0.00,WUHU216HW,2013-02-24 21:01:00,
2013-02-24 16:06:00,42.0,29.5,30.21,NW,315,3.8,5.5,61,0.00,,,0.00,WUHU216HW,2013-02-24 21:06:00,
2013-02-24 16:11:00,41.7,28.8,30.22,West,270,2.4,3.8,60,0.00,,,0.00,WUHU216HW,2013-02-24 21:11:00,
2013-02-24 16:16:00,41.1,27.9,30.21,WSW,248,0.8,3.8,59,0.00,,,0.00,WUHU216HW,2013-02-24 21:16:00,
2013-02-24 16:21:00,40.4,27.6,30.22,NW,315,2.0,7.6,60,0.00,,,0.00,WUHU216HW,2013-02-24 21:21:00,
2013-02-24 16:26:00,40.4,28.0,30.22,WNW,293,7.3,7.6,61,0.00,,,0.00,WUHU216HW,2013-02-24 21:26:00,
2013-02-24 16:31:00,40.6,28.2,30.22,West,270,1.5,7.3,61,0.00,,,0.00,WUHU216HW,2013-02-24 21:31:00,
2013-02-24 16:36:00,40.6,28.2,30.22,SSW,203,3.8,3.8,61,0.00,,,0.00,WUHU216HW,2013-02-24 21:36:00,
2013-02-24 16:41:00,40.4,28.0,30.22,West,270,0.0,3.8,61,0.00,,,0.00,WUHU216HW,2013-02-24 21:41:00,
2013-02-24 16:46:00,40.8,28.4,30.22,West,270,1.5,3.8,61,0.00,,,0.00,WUHU216HW,2013-02-24 21:46:00,
2013-02-24 16:51:00,40.8,28.4,30.22,NW,315,0.8,1.5,61,0.00,,,0.00,WUHU216HW,2013-02-24 21:51:00,
2013-02-24 16:56:00,40.4,28.0,30.22,WSW,248,0.6,2.2,61,0.00,,,0.00,WUHU216HW,2013-02-24 21:56:00,
2013-02-24 17:01:00,40.6,28.6,30.22,WNW,293,2.2,2.2,62,0.00,,,0.00,WUHU216HW,2013-02-24 22:01:00,
2013-02-24 17:06:00,41.1,28.9,30.22,WSW,248,0.0,2.2,62,0.00,,,0.00,WUHU216HW,2013-02-24 22:06:00,
2013-02-24 17:11:00,40.8,28.0,30.22,SW,225,2.4,2.4,60,0.00,,,0.00,WUHU216HW,2013-02-24 22:11:00,
2013-02-24 17:16:00,40.1,27.3,30.23,WNW,293,3.3,3.3,60,0.00,,,0.00,WUHU216HW,2013-02-24 22:16:00,
2013-02-24 17:21:00,39.5,27.3,30.23,WSW,248,0.0,3.3,61,0.00,,,0.00,WUHU216HW,2013-02-24 22:21:00,
2013-02-24 17:26:00,39.9,28.2,30.22,West,270,0.0,3.3,63,0.00,,,0.00,WUHU216HW,2013-02-24 22:26:00,
2013-02-24 17:31:00,40.2,28.6,30.23,West,270,0.0,0.8,63,0.00,,,0.00,WUHU216HW,2013-02-24 22:31:00,
2013-02-24 17:36:00,40.6,28.2,30.23,WNW,293,2.4,2.4,61,0.00,,,0.00,WUHU216HW,2013-02-24 22:36:00,
2013-02-24 17:41:00,40.2,28.2,30.23,West,270,0.0,2.4,62,0.00,,,0.00,WUHU216HW,2013-02-24 22:41:00,
2013-02-24 17:46:00,40.2,28.2,30.23,WNW,293,0.8,2.4,62,0.00,,,0.00,WUHU216HW,2013-02-24 22:46:00,
2013-02-24 17:51:00,40.6,28.6,30.23,WNW,293,2.4,2.4,62,0.00,,,0.00,WUHU216HW,2013-02-24 22:51:00,
2013-02-24 17:56:00,40.2,28.6,30.23,West,270,0.8,2.4,62,0.00,,,0.00,WUHU216HW,2013-02-24 22:56:00,
2013-02-24 18:01:00,39.9,27.5,30.23,WNW,293,0.8,2.4,61,0.00,,,0.00,WUHU216HW,2013-02-24 23:01:00,
2013-02-24 18:06:00,39.3,27.3,30.23,WNW,293,0.0,1.1,62,0.00,,,0.00,WUHU216HW,2013-02-24 23:06:00,
2013-02-24 18:11:00,38.8,26.8,30.23,WNW,293,0.0,1.1,62,0.00,,,0.00,WUHU216HW,2013-02-24 23:11:00,
2013-02-24 18:16:00,38.1,26.5,30.23,WNW,293,0.0,0.0,63,0.00,,,0.00,WUHU216HW,2013-02-24 23:16:00,
2013-02-24 18:21:00,37.2,25.7,30.23,WNW,293,0.0,0.0,63,0.00,,,0.00,WUHU216HW,2013-02-24 23:21:00,
2013-02-24 18:26:00,36.5,25.4,30.23,WNW,293,0.0,0.0,63,0.00,,,0.00,WUHU216HW,2013-02-24 23:26:00,
2013-02-24 18:31:00,36.1,25.4,30.24,WNW,293,0.0,0.0,65,0.00,,,0.00,WUHU216HW,2013-02-24 23:31:00,
2013-02-24 18:36:00,35.4,24.8,30.24,WNW,293,0.0,0.0,65,0.00,,,0.00,WUHU216HW,2013-02-24 23:36:00,
2013-02-24 18:41:00,34.8,24.2,30.24,WNW,293,0.0,0.0,65,0.00,,,0.00,WUHU216HW,2013-02-24 23:41:00,
2013-02-24 18:46:00,34.5,23.9,30.24,WNW,293,0.0,0.0,65,0.00,,,0.00,WUHU216HW,2013-02-24 23:46:00,
2013-02-24 18:51:00,34.3,24.0,30.24,WNW,293,0.0,0.0,66,0.00,,,0.00,WUHU216HW,2013-02-24 23:51:00,
2013-02-24 18:56:00,34.1,23.9,30.24,WNW,293,0.0,0.0,66,0.00,,,0.00,WUHU216HW,2013-02-24 23:56:00,
2013-02-24 19:01:00,33.9,24.0,30.24,WNW,293,0.0,0.0,67,0.00,,,0.00,WUHU216HW,2013-02-25 00:01:00,
2013-02-24 19:06:00,33.6,24.0,30.24,WNW,293,0.0,0.0,68,0.00,,,0.00,WUHU216HW,2013-02-25 00:06:00,
2013-02-24 19:11:00,33.6,24.0,30.24,WNW,293,0.0,0.0,68,0.00,,,0.00,WUHU216HW,2013-02-25 00:11:00,
2013-02-24 19:16:00,33.4,23.9,30.25,WNW,293,0.0,0.0,68,0.00,,,0.00,WUHU216HW,2013-02-25 00:16:00,
2013-02-24 19:21:00,32.9,23.8,30.25,WNW,293,0.0,0.0,69,0.00,,,0.00,WUHU216HW,2013-02-25 00:21:00,
2013-02-24 19:26:00,32.7,23.6,30.25,WNW,293,0.0,0.0,69,0.00,,,0.00,WUHU216HW,2013-02-25 00:26:00,
2013-02-24 19:31:00,32.5,23.8,30.25,WNW,293,0.0,0.0,70,0.00,,,0.00,WUHU216HW,2013-02-25 00:31:00,
2013-02-24 19:36:00,32.1,23.5,30.25,WNW,293,0.0,0.0,70,0.00,,,0.00,WUHU216HW,2013-02-25 00:36:00,
2013-02-24 19:41:00,31.8,23.5,30.25,WNW,293,0.0,0.0,71,0.00,,,0.00,WUHU216HW,2013-02-25 00:41:00,
2013-02-24 19:46:00,31.8,23.5,30.25,WNW,293,0.0,0.0,71,0.00,,,0.00,WUHU216HW,2013-02-25 00:46:00,
2013-02-24 19:51:00,31.6,23.6,30.25,WNW,293,0.0,0.0,72,0.00,,,0.00,WUHU216HW,2013-02-25 00:51:00,
2013-02-24 19:56:00,31.4,23.1,30.25,WNW,293,0.0,0.0,71,0.00,,,0.00,WUHU216HW,2013-02-25 00:56:00,
2013-02-24 20:01:00,31.2,22.9,30.25,WNW,293,0.0,0.0,71,0.00,,,0.00,WUHU216HW,2013-02-25 01:01:00,
2013-02-24 20:06:00,30.7,22.7,30.25,WNW,293,0.0,0.0,72,0.00,,,0.00,WUHU216HW,2013-02-25 01:06:00,
2013-02-24 20:11:00,30.3,22.3,30.25,WNW,293,0.0,0.0,72,0.00,,,0.00,WUHU216HW,2013-02-25 01:11:00,
2013-02-24 20:16:00,30.2,22.5,30.25,WNW,293,0.0,0.0,73,0.00,,,0.00,WUHU216HW,2013-02-25 01:16:00,
2013-02-24 20:21:00,30.0,22.3,30.26,WNW,293,0.0,0.0,73,0.00,,,0.00,WUHU216HW,2013-02-25 01:21:00,
2013-02-24 20:26:00,30.0,22.3,30.25,WNW,293,0.0,0.0,73,0.00,,,0.00,WUHU216HW,2013-02-25 01:26:00,
2013-02-24 20:31:00,29.8,22.5,30.26,WNW,293,0.0,0.0,74,0.00,,,0.00,WUHU216HW,2013-02-25 01:31:00,
2013-02-24 20:36:00,29.4,22.1,30.26,WNW,293,0.0,0.0,74,0.00,,,0.00,WUHU216HW,2013-02-25 01:36:00,
2013-02-24 20:41:00,29.3,22.0,30.25,WNW,293,0.0,0.0,74,0.00,,,0.00,WUHU216HW,2013-02-25 01:41:00,
2013-02-24 20:46:00,29.1,21.8,30.26,WNW,293,0.0,0.0,74,0.00,,,0.00,WUHU216HW,2013-02-25 01:46:00,
2013-02-24 20:51:00,28.7,21.4,30.25,WNW,293,0.0,0.0,74,0.00,,,0.00,WUHU216HW,2013-02-25 01:51:00,
2013-02-24 20:56:00,28.5,21.3,30.26,WNW,293,0.0,0.0,74,0.00,,,0.00,WUHU216HW,2013-02-25 01:56:00,
2013-02-24 21:01:00,28.2,21.2,30.25,WNW,293,0.0,0.0,75,0.00,,,0.00,WUHU216HW,2013-02-25 02:01:00,
2013-02-24 21:06:00,28.2,21.2,30.26,WNW,293,0.0,0.0,75,0.00,,,0.00,WUHU216HW,2013-02-25 02:06:00,
2013-02-24 21:11:00,28.2,21.2,30.25,WNW,293,0.0,0.0,75,0.00,,,0.00,WUHU216HW,2013-02-25 02:11:00,
2013-02-24 21:16:00,28.2,21.2,30.26,WNW,293,0.0,0.0,75,0.00,,,0.00,WUHU216HW,2013-02-25 02:16:00,
2013-02-24 21:21:00,28.0,21.1,30.26,WNW,293,0.0,0.0,75,0.00,,,0.00,WUHU216HW,2013-02-25 02:21:00,
2013-02-24 21:26:00,28.0,21.1,30.26,WNW,293,0.0,0.0,75,0.00,,,0.00,WUHU216HW,2013-02-25 02:26:00,
2013-02-24 21:31:00,27.8,21.2,30.26,WNW,293,0.0,0.0,76,0.00,,,0.00,WUHU216HW,2013-02-25 02:31:00,
2013-02-24 21:36:00,27.6,21.0,30.26,WNW,293,0.0,0.0,76,0.00,,,0.00,WUHU216HW,2013-02-25 02:36:00,
2013-02-24 21:41:00,27.6,21.0,30.26,WNW,293,0.0,0.0,76,0.00,,,0.00,WUHU216HW,2013-02-25 02:41:00,
2013-02-24 21:46:00,27.5,20.8,30.26,WNW,293,0.0,0.0,76,0.00,,,0.00,WUHU216HW,2013-02-25 02:46:00,
2013-02-24 21:51:00,27.3,20.6,30.26,WNW,293,0.0,0.0,76,0.00,,,0.00,WUHU216HW,2013-02-25 02:51:00,
2013-02-24 21:56:00,27.1,20.5,30.26,WNW,293,0.0,0.0,76,0.00,,,0.00,WUHU216HW,2013-02-25 02:56:00,
2013-02-24 22:01:00,27.1,20.8,30.26,WNW,293,0.0,0.0,77,0.00,,,0.00,WUHU216HW,2013-02-25 03:01:00,
2013-02-24 22:06:00,26.9,20.6,30.26,WNW,293,0.0,0.0,77,0.00,,,0.00,WUHU216HW,2013-02-25 03:06:00,
2013-02-24 22:11:00,26.7,20.4,30.26,WNW,293,0.0,0.0,77,0.00,,,0.00,WUHU216HW,2013-02-25 03:11:00,
2013-02-24 22:16:00,26.4,20.1,30.25,WNW,293,0.0,0.0,77,0.00,,,0.00,WUHU216HW,2013-02-25 03:16:00,
2013-02-24 22:21:00,26.0,19.7,30.26,WNW,293,0.0,0.0,77,0.00,,,0.00,WUHU216HW,2013-02-25 03:21:00,
2013-02-24 22:26:00,25.8,19.9,30.26,WNW,293,0.0,0.0,78,0.00,,,0.00,WUHU216HW,2013-02-25 03:26:00,
2013-02-24 22:31:00,25.7,19.7,30.26,WNW,293,0.0,0.0,78,0.00,,,0.00,WUHU216HW,2013-02-25 03:31:00,
2013-02-24 22:36:00,25.5,19.5,30.26,WNW,293,0.0,0.0,78,0.00,,,0.00,WUHU216HW,2013-02-25 03:36:00,
2013-02-24 22:41:00,25.5,19.5,30.26,WNW,293,0.0,0.0,78,0.00,,,0.00,WUHU216HW,2013-02-25 03:41:00,
2013-02-24 22:46:00,25.5,19.5,30.26,WNW,293,0.0,0.0,78,0.00,,,0.00,WUHU216HW,2013-02-25 03:46:00,
2013-02-24 22:51:00,25.5,19.5,30.26,WNW,293,0.0,0.0,78,0.00,,,0.00,WUHU216HW,2013-02-25 03:51:00,
2013-02-24 22:56:00,25.3,19.4,30.26,WNW,293,0.0,0.0,78,0.00,,,0.00,WUHU216HW,2013-02-25 03:56:00,
2013-02-24 23:01:00,25.1,19.2,30.25,WNW,293,0.0,0.0,78,0.00,,,0.00,WUHU216HW,2013-02-25 04:01:00,
2013-02-24 23:06:00,25.1,19.5,30.25,WNW,293,0.0,0.0,79,0.00,,,0.00,WUHU216HW,2013-02-25 04:06:00,
2013-02-24 23:11:00,24.6,19.0,30.25,WNW,293,0.0,0.0,79,0.00,,,0.00,WUHU216HW,2013-02-25 04:11:00,
2013-02-24 23:16:00,24.6,19.0,30.25,WNW,293,0.0,0.0,79,0.00,,,0.00,WUHU216HW,2013-02-25 04:16:00,
2013-02-24 23:21:00,24.6,19.0,30.25,WNW,293,0.0,0.0,79,0.00,,,0.00,WUHU216HW,2013-02-25 04:21:00,
2013-02-24 23:26:00,24.6,19.0,30.25,WNW,293,0.0,0.0,79,0.00,,,0.00,WUHU216HW,2013-02-25 04:26:00,
2013-02-24 23:31:00,24.6,19.0,30.24,WNW,293,0.0,0.0,79,0.00,,,0.00,WUHU216HW,2013-02-25 04:31:00,
2013-02-24 23:36:00,24.8,19.5,30.24,WNW,293,0.0,0.0,80,0.00,,,0.00,WUHU216HW,2013-02-25 04:36:00,
2013-02-24 23:41:00,24.6,19.4,30.25,WNW,293,0.0,0.0,80,0.00,,,0.00,WUHU216HW,2013-02-25 04:41:00,
2013-02-24 23:46:00,24.6,19.4,30.24,WNW,293,0.0,0.0,80,0.00,,,0.00,WUHU216HW,2013-02-25 04:46:00,
2013-02-24 23:51:00,24.6,19.4,30.23,WNW,293,0.0,0.0,80,0.00,,,0.00,WUHU216HW,2013-02-25 04:51:00,
2013-02-24 23:56:00,24.4,19.2,30.24,WNW,293,0.0,0.0,80,0.00,,,0.00,WUHU216HW,2013-02-25 04:56:00,